This demonstration page uses our WeatherBlox Daily Observations layout. Learn more.

Left ArrowRight Arrow

38.20091, -84.87328

Hourly Observations for September 5, 2016

Temp ( °F °C ) Dew Point ( °F °C ) Humidity (%) Winds ( mph kmh ) Pressure ( in mb ) Visibility ( mi km ) Precip ( " mm )
12:53 am 00:53 Clear 67 19.4 60 15.6 79 79 Calm 30.17 1022 10 16 0.00 0.00
1:53 am 01:53 Clear 65 18.3 59 15 81 81 Calm 30.17 1022 10 16 0.00 0.00
2:53 am 02:53 Clear 63 17.2 59 15 87 87 Calm 30.17 1022 10 16 0.00 0.00
3:53 am 03:53 Clear 63 17.2 59 15 87 87 Calm 30.17 1022 10 16 0.00 0.00
4:53 am 04:53 Clear 62 16.7 58 14.4 86 86 Calm 30.17 1022 10 16 0.00 0.00
5:53 am 05:53 Clear 61 16.1 58 14.4 90 90 Calm 30.17 1022 10 16 0.00 0.00
6:53 am 06:53 Clear 61 16.1 57 13.9 87 87 Calm 30.19 1022 10 16 0.00 0.00
7:53 am 07:53 Sunny 62 16.7 59 15 90 90 Calm 30.20 1023 10 16 0.00 0.00
8:53 am 08:53 Sunny 70 21.1 61 16.1 73 73 Calm 30.21 1023 10 16 0.00 0.00
9:53 am 09:53 Sunny 75 23.9 61 16.1 62 62 SSE 5 7 30.22 1023 10 16 0.00 0.00
10:53 am 10:53 Sunny 80 26.7 63 17.2 56 56 SW 7 11 30.22 1023 10 16 0.00 0.00
11:53 am 11:53 Sunny 85 29.4 65 18.3 51 51 SW 7 11 30.21 1023 10 16 0.00 0.00
12:53 pm 12:53 Sunny 87 30.6 67 19.4 51 51 VRB 7 11 30.20 1023 10 16 0.00 0.00
1:53 pm 13:53 Partly Cloudy 86 30 66 18.9 51 51 W 5 7 30.19 1022 10 16 0.00 0.00
2:53 pm 14:53 Partly Cloudy 88 31.1 64 17.8 45 45 WNW 5 7 30.17 1022 10 16 0.00 0.00
3:53 pm 15:53 Mostly Sunny 90 32.2 64 17.8 42 42 SW 8 13 30.15 1021 10 16 0.00 0.00
4:53 pm 16:53 Partly Cloudy 89 31.7 63 17.2 42 42 VRB 5 7 30.14 1021 10 16 0.00 0.00
5:53 pm 17:53 Sunny 89 31.7 62 16.7 41 41 SW 8 13 30.13 1020 10 16 0.00 0.00
6:53 pm 18:53 Sunny 86 30 65 18.3 49 49 SW 3 6 30.13 1020 10 16 0.00 0.00
7:53 pm 19:53 Sunny 82 27.8 68 20 63 63 Calm 30.13 1020 10 16 0.00 0.00
8:53 pm 20:53 Clear 75 23.9 68 20 79 79 Calm 30.14 1021 10 16 0.00 0.00
9:53 pm 21:53 Clear 76 24.4 67 19.4 74 74 Calm 30.15 1021 10 16 0.00 0.00
10:53 pm 22:53 Clear 73 22.8 66 18.9 79 79 Calm 30.16 1021 10 16 0.00 0.00
11:53 pm 23:53 Clear 72 22.2 66 18.9 82 82 Calm 30.17 1022 10 16 0.00 0.00

Powered by AerisWeather